sat.trackr.live / text

‹ back to catalog

CYGFM03

NORAD 41891 · 2016-078H

PAYLOAD INACTIVE UNKNOWN

§ Identity

Operator
Country
US
Launch date
2016-12-15
Launch site
ERAS
Launch vehicle
Mass (kg)
RCS (m²)
0.19

Purposes: earth_obs

External: N2YO · Heavens-Above · Gunter

§ Orbital elements

Epoch: 2026-05-25T01:49:44.131872Z

Period
92.38 min
Inclination
34.9417°
Eccentricity
0.0007836
Mean motion
15.58745490 rev/d
Perigee alt
386.0 km
Apogee alt
396.6 km
Semi-major
6,769.4 km
B*
3.1709e-4
RAAN
25.2164°
Arg perigee
316.9957°
Mean anomaly
43.0154°
Rev number
52,536

§ Raw data

CYGFM031 41891U 16078H   26145.07620523  .00025332  00000+0  31709-3 0  99952 41891  34.9417  25.2164 0007836 316.9957  43.0154 15.58745490525363

JSON: /api/v1/satellites/41891 · /tle

For live sub-satellite position, see the globe view (requires WebGL).

§ Visibility from observer

Set your observer location to see the next 7 days of passes ≥ 10°. The values pass through the URL so the page stays shareable.

No JS? Fill the form by hand. The geolocation button needs JavaScript.